Date String (YYYY-MM-DD hh:mm:ss) UTC,Instrument flags,absolute air pressure of the measurement (hPa),sample flow rate (lpm),inlet stack bypass flow (lpm),air temperature of the measurement (°C),ambient temperature measured by the external sensor (°C),aerosol sample conditioner tube jacket temperature (°C),OPC LED temperature (°C),internal box temperature (°C),relative humidity of the measurement (%),span deviation,mass concentration of particles derived from Lorenz-Mie calculation of OPC scattering (μg/m³),mass concentration of particles derived from Lorenz-Mie calculation of OPC scattering (μg/m³),mass concentration of particles derived from Lorenz-Mie calculation of OPC scattering (μg/m³)
DateTimeUTC,F1_M11,P_M11,Q1_M11,Q2_M11,T1_M11,T2_M11,T3_M11,T4_M11,T5_M11,U1_M11,ZSPAN_M11,X2_M11,X0_M11,X1_M11
2023-08-27 22:00:00,SystemResetWarning,0835.0,5.00,000.00,030.8,026.5,000.0,038.9,030.5,29.6,0001.5,0006.69,0010.93,0006.30
2023-08-27 22:01:00,SystemResetWarning,0834.9,4.98,000.00,030.8,025.8,000.0,038.7,030.4,29.2,0001.5,0006.74,0011.05,0006.33
2023-08-27 22:02:00,SystemResetWarning,0835.0,5.01,000.00,030.7,024.4,000.0,038.5,030.1,29.5,0001.5,0006.79,0010.89,0006.38
2023-08-27 22:03:00,SystemResetWarning,0834.9,5.02,000.00,030.6,024.0,000.0,038.4,030.0,29.6,0001.9,0006.79,0010.05,0006.40
2023-08-27 22:04:00,SystemResetWarning,0835.0,4.99,000.00,030.4,024.2,000.0,038.4,029.8,29.7,0001.9,0006.79,0009.85,0006.43
2023-08-27 22:05:00,SystemResetWarning,0835.1,5.00,000.00,030.3,024.6,000.0,038.4,029.9,29.8,0001.7,0006.82,0009.68,0006.47
2023-08-27 22:06:00,SystemResetWarning,0835.3,5.00,000.00,030.2,025.1,000.0,038.4,030.0,30.1,0001.9,0006.86,0009.76,0006.49
2023-08-27 22:07:00,SystemResetWarning,0835.3,5.01,000.00,030.1,025.6,000.0,038.4,030.1,30.6,0001.7,0006.87,0009.75,0006.50
2023-08-27 22:08:00,SystemResetWarning,0835.3,5.00,000.00,030.1,026.0,000.0,038.3,030.2,30.7,0001.9,0006.84,0009.69,0006.49
2023-08-27 22:09:00,SystemResetWarning,0835.2,5.00,000.00,030.1,026.3,000.0,038.3,030.3,30.8,0002.0,0006.82,0010.18,0006.50
2023-08-27 22:10:00,SystemResetWarning,0835.2,5.00,000.00,030.0,026.4,000.0,038.3,030.3,30.7,0001.4,0006.83,0010.38,0006.49
2023-08-27 22:11:00,SystemResetWarning,0835.3,4.98,000.00,030.0,025.1,000.0,038.1,030.1,30.5,0001.2,0006.83,0010.94,0006.48
2023-08-27 22:12:00,SystemResetWarning,0835.3,5.01,000.00,029.9,024.0,000.0,037.9,029.9,30.9,0001.0,0006.81,0010.92,0006.45
2023-08-27 22:13:00,SystemResetWarning,0835.3,5.01,000.00,029.8,023.8,000.0,037.8,029.6,31.5,0000.8,0006.79,0010.90,0006.44
2023-08-27 22:14:00,SystemResetWarning,0835.3,5.01,000.00,029.6,024.1,000.0,037.8,029.5,32.0,0000.9,0006.81,0010.93,0006.44
2023-08-27 22:15:00,SystemResetWarning,0835.2,4.99,000.00,029.5,024.6,000.0,037.8,029.6,32.0,0000.4,0006.83,0011.02,0006.41
2023-08-27 22:16:00,SystemResetWarning,0835.1,5.01,000.00,029.5,025.1,000.0,037.8,029.8,31.9,0000.3,0006.86,0011.39,0006.40
2023-08-27 22:17:00,SystemResetWarning,0835.1,5.00,000.00,029.4,025.5,000.0,037.8,029.9,32.0,0000.2,0006.82,0011.46,0006.35
2023-08-27 22:18:00,SystemResetWarning,0835.1,5.00,000.00,029.4,025.9,000.0,037.8,030.0,32.3,0000.3,0006.80,0012.00,0006.26
2023-08-27 22:19:00,SystemResetWarning,0835.1,4.99,000.00,029.4,026.3,000.0,037.8,030.1,32.5,-000.1,0006.80,0013.16,0006.16
2023-08-27 22:20:00,SystemResetWarning,0835.2,4.99,000.00,029.4,026.5,000.0,037.8,030.1,32.8,-000.6,0006.82,0013.95,0006.07
2023-08-27 22:21:00,SystemResetWarning,0835.2,4.99,000.00,029.4,026.1,000.0,037.7,030.1,32.5,-000.0,0006.77,0014.13,0005.97
2023-08-27 22:22:00,SystemResetWarning,0835.2,5.00,000.00,029.3,024.5,000.0,037.5,029.8,32.3,-000.5,0006.71,0014.40,0005.84
2023-08-27 22:23:00,SystemResetWarning,0835.2,5.00,000.00,029.2,023.8,000.0,037.4,029.5,32.6,-000.8,0006.61,0015.04,0005.70
2023-08-27 22:24:00,SystemResetWarning,0835.3,5.01,000.00,029.1,023.8,000.0,037.3,029.3,33.6,-001.0,0006.51,0016.08,0005.56
2023-08-27 22:25:00,SystemResetWarning,0835.2,5.01,000.00,028.9,024.2,000.0,037.3,029.3,33.9,-001.2,0006.36,0016.70,0005.37
2023-08-27 22:26:00,SystemResetWarning,0835.2,5.00,000.00,028.9,024.7,000.0,037.3,029.5,34.4,-001.4,0006.15,0016.55,0005.18
2023-08-27 22:27:00,SystemResetWarning,0835.3,4.98,000.00,028.8,025.1,000.0,037.3,029.6,35.0,-001.8,0005.92,0016.27,0004.97
2023-08-27 22:28:00,SystemResetWarning,0835.3,5.04,000.00,028.9,025.5,000.0,037.3,029.8,35.5,-001.3,0005.69,0016.07,0004.75
2023-08-27 22:29:00,SystemResetWarning,0835.4,4.99,000.00,029.2,025.9,000.0,037.3,030.0,34.9,0000.0,0005.53,0016.48,0004.60
2023-08-27 22:30:00,SystemResetWarning,0835.5,4.97,000.00,029.4,026.2,000.0,037.3,030.1,35.0,0000.0,0005.36,0015.62,0004.47
2023-08-27 22:31:00,SystemResetWarning,0835.5,5.04,000.00,029.6,026.5,000.0,037.4,030.2,35.4,0000.0,0005.16,0014.15,0004.34
2023-08-27 22:32:00,SystemResetWarning,0835.5,4.97,000.00,029.9,026.7,000.0,037.4,030.3,34.9,0000.0,0004.93,0013.67,0004.18
2023-08-27 22:33:00,SystemResetWarning,0835.5,5.00,000.00,030.1,026.5,000.0,037.4,030.3,34.9,0000.0,0004.74,0012.84,0004.04
2023-08-27 22:34:00,SystemResetWarning,0835.5,5.02,000.00,030.3,025.2,000.0,037.4,030.0,34.9,0000.0,0004.58,0011.96,0003.92
2023-08-27 22:35:00,SystemResetWarning,0835.5,4.99,000.00,030.4,024.5,000.0,037.4,029.9,35.2,0000.0,0004.45,0010.55,0003.82
2023-08-27 22:36:00,SystemResetWarning,0835.5,5.02,000.00,030.6,024.6,000.0,037.5,029.9,35.4,0000.0,0004.33,0009.56,0003.71
2023-08-27 22:37:00,SystemResetWarning,0835.5,4.99,000.00,030.8,024.9,000.0,037.6,030.0,35.3,0000.0,0004.22,0009.29,0003.62
2023-08-27 22:38:00,SystemResetWarning,0835.5,5.02,000.00,031.1,025.3,000.0,037.7,030.2,34.6,0000.0,0004.13,0009.19,0003.55
2023-08-27 22:39:00,SystemResetWarning,0835.5,4.98,000.00,031.3,025.7,000.0,037.9,030.4,33.3,0000.0,0004.06,0008.99,0003.48
2023-08-27 22:40:00,SystemResetWarning,0835.5,5.00,000.00,031.4,026.1,000.0,038.0,030.4,32.8,0000.0,0003.97,0008.07,0003.42
2023-08-27 22:41:00,SystemResetWarning,0835.5,5.01,000.00,031.5,026.3,000.0,038.2,030.5,32.8,0000.0,0003.92,0007.86,0003.37
2023-08-27 22:42:00,SystemResetWarning,0835.5,5.01,000.00,031.5,026.6,000.0,038.4,030.5,33.1,0000.0,0003.86,0008.00,0003.34
2023-08-27 22:43:00,SystemResetWarning,0835.5,4.98,000.00,031.5,026.6,000.0,038.5,030.5,32.1,0000.0,0003.84,0008.25,0003.31
2023-08-27 22:44:00,SystemResetWarning,0835.5,5.00,000.00,031.5,025.3,000.0,038.4,030.3,30.8,0000.0,0003.78,0008.07,0003.28
2023-08-27 22:45:00,SystemResetWarning,0835.5,5.00,000.00,031.5,024.0,000.0,038.4,030.1,30.7,0000.0,0003.78,0008.05,0003.26
2023-08-27 22:46:00,SystemResetWarning,0835.5,5.00,000.00,031.4,023.7,000.0,038.4,029.8,31.8,0000.0,0003.74,0007.94,0003.24
2023-08-27 22:47:00,SystemResetWarning,0835.5,5.01,000.00,031.1,024.0,000.0,038.5,029.7,32.4,0000.0,0003.70,0007.86,0003.23
2023-08-27 22:48:00,SystemResetWarning,0835.5,5.01,000.00,030.9,024.5,000.0,038.5,029.8,33.3,0000.0,0003.69,0007.89,0003.22
2023-08-27 22:49:00,SystemResetWarning,0835.5,5.00,000.00,030.9,025.0,000.0,038.6,029.9,34.1,0000.0,0003.74,0008.20,0003.20
2023-08-27 22:50:00,SystemResetWarning,0835.5,5.00,000.00,030.8,025.4,000.0,038.6,030.1,34.8,0000.0,0003.74,0008.19,0003.19
2023-08-27 22:51:00,SystemResetWarning,0835.5,4.98,000.00,030.8,025.8,000.0,038.6,030.2,35.4,0000.0,0003.74,0008.14,0003.19
2023-08-27 22:52:00,SystemResetWarning,0835.8,5.01,000.00,030.8,026.2,000.0,038.6,030.3,34.6,0000.0,0003.72,0008.00,0003.17
2023-08-27 22:53:00,SystemResetWarning,0835.5,4.99,000.00,030.9,026.4,000.0,038.7,030.4,34.1,0000.0,0003.70,0007.55,0003.16
2023-08-27 22:54:00,SystemResetWarning,0835.5,4.99,000.00,030.9,026.7,000.0,038.7,030.5,34.9,0000.0,0003.66,0007.09,0003.13
2023-08-27 22:55:00,SystemResetWarning,0835.5,5.04,000.00,031.0,026.9,000.0,038.7,030.6,34.3,0000.0,0003.65,0007.12,0003.11
2023-08-27 22:56:00,SystemResetWarning,0835.5,4.97,000.00,031.1,026.6,000.0,038.7,030.6,33.9,0000.0,0003.61,0006.81,0003.10
2023-08-27 22:57:00,SystemResetWarning,0835.5,5.02,000.00,031.1,025.1,000.0,038.5,030.3,34.7,0000.0,0003.61,0006.78,0003.09
2023-08-27 22:58:00,SystemResetWarning,0835.6,5.01,000.00,031.1,024.1,000.0,038.4,030.1,34.5,0000.0,0003.63,0006.87,0003.07
2023-08-27 22:59:00,SystemResetWarning,0835.5,4.98,000.00,031.0,024.0,000.0,038.4,029.9,34.9,0000.0,0003.64,0006.88,0003.06
